Weather History for PAOT - October, 2013

Change the Weather History Date:

Friday, October 11, 2013

  Actual Average Record
Temperature  
Mean Temperature 38 °F 28 °F  
Max Temperature 40 °F 32 °F 47 °F (2009)
Min Temperature 36 °F 23 °F 5 °F (1970)
Degree Days  
Heating Degree Days 27 38  
Month to date heating degree days 340 378  
Since 1 July heating degree days 1696 1796  
Cooling Degree Days 0    
Month to date cooling degree days 0  
Year to date cooling degree days 13  
Moisture  
Dew Point 37 °F    
Average Humidity 0    
Maximum Humidity 0    
Minimum Humidity 0    
Precipitation  
Precipitation 0.12 in 0.04 in 0.21 in (2013)
Month to date precipitation 0.52 0.45  
Year to date precipitation 9.00 8.91  
Snow  
Snow 0.00 in 0.10 in 3.00 in (1957)
Month to date snowfall 0.3 1.5  
Since 1 July snowfall 0.7 2.3  
Since 1 September snowfall 0.7 2.3  
Snow Depth 0.00 in    
Sea Level Pressure  
Sea Level Pressure 29.46 in    
Wind  
Wind Speed 0 mph (SE)    
Max Wind Speed 26 mph    
Max Gust Speed 32 mph    
Visibility 9 miles    
Events Rain    
T = Trace of Precipitation, MM = Missing Value Source: NWS Daily Summary

Daily Weather History Graph

Daily Weather History Graph

Search for Another Location

Airport or City:

Trip Planner

Search our weather history database for the weather conditions in past years. The results will help you decide how hot, cold, wet, or windy it might be!

Date:

Astronomy

Oct. 11, 2013 Rise Set
Actual Time 9:37 AM AKDT 7:34 PM AKDT
Civil Twilight 8:43 AM AKDT 8:28 PM AKDT
Nautical Twilight 7:42 AM AKDT 9:29 PM AKDT
Astronomical Twilight 6:38 AM AKDT 10:33 PM AKDT
Moon 5:56 PM AKDT (10/11) No Moon Set
Length of Visible Light 11h 44m
Length of Day
9h 56m
Waxing Crescent, 49% of the Moon is Illuminated
Oct 11
Waxing Crescent
Oct 11
First Quarter
Oct 18
Full
Oct 26
Last Quarter
Nov 3
New

Hourly Weather History & Observations

Time (AKDT) Temp. Windchill Dew Point Humidity Pressure Visibility Wind Dir Wind Speed Gust Speed Precip Events Conditions
12:09 AM 35.6 °F 24.2 °F 33.8 °F 93% 29.35 in 9.0 mi East 21.9 mph 31.1 mph 0.00 in Rain Light Rain
12:49 AM 35.6 °F 23.7 °F 33.8 °F 93% 29.36 in 10.0 mi ESE 24.2 mph 31.1 mph 0.01 in Rain Light Rain
12:53 AM 36.0 °F 23.9 °F 34.0 °F 93% 29.37 in 10.0 mi ESE 25.3 mph 31.1 mph 0.02 in Rain Light Rain
1:02 AM 35.6 °F 23.7 °F 33.8 °F 93% 29.36 in 10.0 mi ESE 24.2 mph - 0.00 in Rain Light Rain
1:53 AM 36.0 °F 24.7 °F 34.0 °F 93% 29.36 in 10.0 mi ESE 21.9 mph 29.9 mph 0.02 in   Overcast
2:53 AM 36.0 °F 24.7 °F 34.0 °F 93% 29.37 in 10.0 mi ESE 21.9 mph 29.9 mph 0.00 in Rain Light Rain
3:53 AM 36.0 °F 24.7 °F 34.0 °F 93% 29.37 in 9.0 mi ESE 21.9 mph - 0.00 in Rain Light Rain
4:53 AM 36.0 °F 24.4 °F 35.1 °F 97% 29.38 in 8.0 mi ESE 23.0 mph - 0.01 in Rain Light Rain
5:23 AM 35.6 °F 23.7 °F 35.6 °F 100% 29.37 in 9.0 mi ESE 24.2 mph - 0.01 in Rain Light Rain
5:43 AM 35.6 °F 23.7 °F 35.6 °F 100% 29.37 in 7.0 mi East 24.2 mph - 0.02 in Rain Light Rain
5:53 AM 36.0 °F 24.7 °F 35.1 °F 97% 29.37 in 7.0 mi ESE 21.9 mph - 0.03 in Rain Light Rain
6:53 AM 37.0 °F 25.9 °F 35.1 °F 93% 29.38 in 9.0 mi ESE 23.0 mph - 0.03 in Rain Light Rain
7:28 AM 37.4 °F 26.9 °F 35.6 °F 93% 29.38 in 10.0 mi ESE 20.7 mph - 0.00 in Rain Light Rain
7:53 AM 37.0 °F 25.9 °F 36.0 °F 96% 29.39 in 10.0 mi ESE 23.0 mph - 0.01 in Rain Light Rain
8:53 AM 37.9 °F 28.5 °F 36.0 °F 93% 29.40 in 10.0 mi SE 17.3 mph - 0.00 in   Overcast
9:53 AM 37.9 °F 28.5 °F 37.0 °F 97% 29.42 in 10.0 mi ESE 17.3 mph - N/A   Overcast
10:53 AM 37.9 °F 29.6 °F 37.0 °F 97% 29.44 in 10.0 mi ESE 13.8 mph - 0.00 in Rain Light Rain
11:10 AM 39.2 °F 30.2 °F 37.4 °F 93% 29.44 in 10.0 mi ESE 17.3 mph - 0.01 in Rain Light Rain
11:31 AM 39.2 °F 30.2 °F 37.4 °F 93% 29.44 in 10.0 mi SE 17.3 mph - 0.01 in Rain Light Rain
11:53 AM 39.9 °F 31.4 °F 37.9 °F 93% 29.46 in 10.0 mi SE 16.1 mph 24.2 mph 0.01 in   Overcast
12:30 PM 39.2 °F 30.2 °F 37.4 °F 93% 29.46 in 7.0 mi SE 17.3 mph 24.2 mph 0.00 in Rain Light Rain
12:53 PM 39.9 °F 31.1 °F 37.9 °F 93% 29.47 in 10.0 mi SE 17.3 mph - 0.01 in Rain Light Rain
1:46 PM 39.2 °F 29.8 °F 39.2 °F 100% 29.48 in 6.0 mi SE 18.4 mph 26.5 mph 0.00 in Rain Light Rain
1:53 PM 39.9 °F 30.8 °F 39.0 °F 97% 29.49 in 8.0 mi SE 18.4 mph 26.5 mph 0.00 in Rain Light Rain
2:53 PM 39.9 °F 31.1 °F 39.0 °F 97% 29.49 in 7.0 mi SSE 17.3 mph - 0.03 in Rain Light Rain
3:53 PM 39.9 °F 31.1 °F 39.0 °F 97% 29.50 in 10.0 mi SSE 17.3 mph - 0.01 in   Overcast
4:45 PM 39.2 °F 30.2 °F 37.4 °F 93% 29.50 in 10.0 mi SSE 17.3 mph - 0.00 in Rain Light Rain
4:53 PM 39.9 °F 31.4 °F 37.9 °F 93% 29.51 in 8.0 mi SSE 16.1 mph - 0.00 in Rain Light Rain
5:16 PM 39.2 °F 30.2 °F 39.2 °F 100% 29.50 in 9.0 mi SSE 17.3 mph - 0.00 in Rain Light Rain
5:53 PM 39.9 °F 30.8 °F 39.0 °F 97% 29.51 in 10.0 mi SSE 18.4 mph - 0.02 in Rain Light Rain
6:53 PM 39.9 °F 31.8 °F 39.0 °F 97% 29.53 in 9.0 mi SSE 15.0 mph - 0.01 in Rain Light Rain
7:02 PM 39.2 °F 30.8 °F 39.2 °F 100% 29.52 in 10.0 mi SSE 15.0 mph - 0.01 in   Overcast
7:53 PM 39.0 °F 31.0 °F 37.9 °F 96% 29.53 in 10.0 mi SSE 13.8 mph - 0.01 in   Overcast
8:10 PM 39.2 °F 31.2 °F 37.4 °F 93% 29.54 in 10.0 mi SSE 13.8 mph - 0.00 in   Overcast
8:26 PM 39.2 °F 31.6 °F 37.4 °F 93% 29.54 in 10.0 mi SSE 12.7 mph - 0.00 in   Overcast
8:53 PM 39.0 °F 32.3 °F 37.9 °F 96% 29.55 in 10.0 mi SSE 10.4 mph - 0.00 in   Overcast
9:53 PM 39.0 °F 31.4 °F 37.0 °F 93% 29.56 in 10.0 mi SSE 12.7 mph - 0.01 in Rain Light Rain
10:37 PM 39.2 °F 33.0 °F 37.4 °F 93% 29.57 in 10.0 mi South 9.2 mph - 0.00 in   Overcast
10:53 PM 39.0 °F 33.4 °F 37.9 °F 96% 29.57 in 4.0 mi South 8.1 mph - 0.00 in   Overcast
11:02 PM 39.2 °F 33.6 °F 37.4 °F 93% 29.57 in 10.0 mi South 8.1 mph - N/A   Overcast
11:53 PM 39.0 °F 32.8 °F 37.0 °F 93% 29.59 in 8.0 mi South 9.2 mph - N/A   Overcast